TimePDT,TemperatureF,Dew PointF,Humidity,Sea Level PressureIn,VisibilityMPH,Wind Direction,Wind SpeedMPH,Gust SpeedMPH,PrecipitationIn,Events,Conditions,WindDirDegrees,DateUTC
12:54 AM,55.9,48.0,75,29.85,10.0,Calm,Calm,-,N/A,,Clear,0,2013-09-18 07:54:00
1:54 AM,57.0,48.9,74,29.85,10.0,South,3.5,-,N/A,,Clear,180,2013-09-18 08:54:00
2:54 AM,53.1,48.0,83,29.85,10.0,Calm,Calm,-,N/A,,Clear,0,2013-09-18 09:54:00
3:54 AM,52.0,48.0,86,29.85,10.0,Calm,Calm,-,N/A,,Clear,0,2013-09-18 10:54:00
4:54 AM,48.0,46.0,93,29.85,10.0,Calm,Calm,-,N/A,,Clear,0,2013-09-18 11:54:00
5:54 AM,48.9,45.0,86,29.86,10.0,Calm,Calm,-,N/A,,Clear,0,2013-09-18 12:54:00
6:54 AM,48.9,46.0,90,29.87,10.0,Calm,Calm,-,N/A,,Clear,0,2013-09-18 13:54:00
7:54 AM,55.0,48.9,80,29.88,10.0,Calm,Calm,-,N/A,,Clear,0,2013-09-18 14:54:00
8:54 AM,63.0,51.1,65,29.88,10.0,SSW,5.8,-,N/A,,Clear,210,2013-09-18 15:54:00
9:54 AM,68.0,50.0,52,29.89,10.0,SW,4.6,-,N/A,,Clear,220,2013-09-18 16:54:00
10:54 AM,73.0,48.0,41,29.87,10.0,WSW,5.8,-,N/A,,Clear,240,2013-09-18 17:54:00
11:54 AM,77.0,46.9,34,29.85,10.0,SSW,12.7,-,N/A,,Clear,200,2013-09-18 18:54:00
12:54 PM,80.1,46.0,30,29.84,10.0,South,12.7,-,N/A,,Clear,180,2013-09-18 19:54:00
1:54 PM,84.9,43.0,23,29.81,10.0,South,12.7,-,N/A,,Clear,190,2013-09-18 20:54:00
2:54 PM,82.9,48.0,29,29.81,10.0,SW,18.4,-,N/A,,Clear,220,2013-09-18 21:54:00
3:54 PM,82.9,48.0,29,29.79,10.0,SW,12.7,-,N/A,,Clear,230,2013-09-18 22:54:00
4:54 PM,82.9,43.0,24,29.77,10.0,West,13.8,-,N/A,,Clear,270,2013-09-18 23:54:00
5:54 PM,80.1,43.0,27,29.78,10.0,West,11.5,-,N/A,,Clear,260,2013-09-19 00:54:00
6:54 PM,72.0,45.0,38,29.79,10.0,SW,9.2,-,N/A,,Clear,220,2013-09-19 01:54:00
7:54 PM,66.0,48.0,52,29.80,10.0,South,6.9,-,N/A,,Clear,170,2013-09-19 02:54:00
8:54 PM,64.0,48.9,58,29.81,10.0,South,6.9,-,N/A,,Clear,170,2013-09-19 03:54:00
9:54 PM,59.0,46.9,64,29.82,10.0,ESE,4.6,-,N/A,,Clear,110,2013-09-19 04:54:00
10:54 PM,59.0,48.0,67,29.82,10.0,SSE,3.5,-,N/A,,Clear,150,2013-09-19 05:54:00
11:54 PM,53.1,46.9,80,29.83,10.0,Calm,Calm,-,N/A,,Clear,0,2013-09-19 06:54:00